Chillicothe, MO

3:01 PM CDT on April 23, 2017 (GMT -0500)
Chillicothe

Weather History for KCDJ - December, 2012

Change the Weather History Date:

Thursday, December 6, 2012

  Actual Average (KIRK) Record (KIRK)
Temperature  
Mean Temperature 48 °F -  
Max Temperature 53 °F 40 °F 66 °F (1946)
Min Temperature 42 °F 22 °F -1 °F (1950)
Degree Days  
Heating Degree Days 18    
Moisture  
Dew Point 37 °F    
Average Humidity 70    
Maximum Humidity 86    
Minimum Humidity 59    
Precipitation  
Precipitation 0.02 in - - ()
Sea Level Pressure  
Sea Level Pressure 29.98 in    
Wind  
Wind Speed 6 mph (SSE)    
Max Wind Speed 9 mph    
Max Gust Speed -    
Averages and records for this station are not official NWS values.
T = Trace of Precipitation, MM = Missing Value Source: NWS Daily Summary

Daily Weather History Graph

Daily Weather History Graph

Search for Another Location

Airport or City:

Trip Planner

Search our weather history database for the weather conditions in past years. The results will help you decide how hot, cold, wet, or windy it might be!

Date:

Astronomy

Dec. 06, 2012 Rise Set
Actual Time 7:21 AM CST 4:49 PM CST
Civil Twilight 6:51 AM CST 5:19 PM CST
Nautical Twilight 6:17 AM CST 5:53 PM CST
Astronomical Twilight 5:45 AM CST 6:26 PM CST
Moon No Moon Rise 12:15 PM CST (12/6)
Length of Visible Light 10h 28m
Length of Day
9h 27m
Waning Gibbous, 49% of the Moon is Illuminated
Dec 6
Waning Gibbous
Dec 13
New
Dec 19
First Quarter
Dec 28
Full
Jan 4
Last Quarter

Hourly Weather History & Observations

Time (CST) Temp. Windchill Dew Point Humidity Pressure Visibility Wind Dir Wind Speed Gust Speed Precip Events Conditions
12:52 AM 45.0 °F 40.6 °F 34.0 °F 65% 30.05 in - SSE 8.1 mph - N/A   Unknown
1:52 AM 44.1 °F 40.1 °F 33.1 °F 65% 30.05 in - SSE 6.9 mph - N/A   Unknown
2:52 AM 42.1 °F 37.7 °F 32.0 °F 67% 30.04 in - SSE 6.9 mph - N/A   Unknown
3:52 AM 42.1 °F 38.4 °F 30.9 °F 65% 30.02 in - SSE 5.8 mph - N/A   Unknown
4:52 AM 43.0 °F 38.8 °F 30.9 °F 62% 30.02 in - SSE 6.9 mph - N/A   Unknown
5:52 AM 42.1 °F 36.6 °F 30.0 °F 62% 30.00 in - SSE 9.2 mph - N/A   Unknown
6:52 AM 42.1 °F 37.7 °F 30.9 °F 65% 30.00 in - SSE 6.9 mph - N/A   Unknown
7:52 AM 43.0 °F 39.5 °F 32.0 °F 65% 30.01 in - SSE 5.8 mph - N/A   Unknown
8:52 AM 44.1 °F 40.1 °F 32.0 °F 63% 30.01 in - SSE 6.9 mph - N/A   Unknown
9:52 AM 45.0 °F 40.1 °F 33.1 °F 63% 30.00 in - SSE 9.2 mph - N/A   Unknown
10:52 AM 46.9 °F - 35.1 °F 63% 29.99 in - SSE 5.8 mph - N/A   Unknown
11:52 AM 51.1 °F - 37.9 °F 61% 29.96 in - South 5.8 mph - N/A   Unknown
12:52 PM 53.1 °F - 39.0 °F 59% 29.94 in - SSW 5.8 mph - N/A   Unknown
1:52 PM 53.1 °F - 39.0 °F 59% 29.93 in - SSW 5.8 mph - N/A   Unknown
2:52 PM 53.1 °F - 39.9 °F 61% 29.92 in - SSW 3.5 mph - N/A   Unknown
3:52 PM 52.0 °F - 41.0 °F 66% 29.90 in - Calm Calm - N/A   Unknown
4:52 PM 48.9 °F - 43.0 °F 80% 29.94 in - Calm Calm - 0.01 in   Unknown
5:52 PM 48.0 °F - 44.1 °F 86% 29.95 in - Calm Calm - 0.01 in   Unknown
6:52 PM 48.0 °F - 43.0 °F 83% 29.95 in - North 4.6 mph - N/A   Unknown
7:52 PM 46.9 °F - 43.0 °F 86% 29.96 in - North 3.5 mph - N/A   Unknown
8:52 PM 46.9 °F - 43.0 °F 86% 29.96 in - Calm Calm - N/A   Unknown
9:52 PM 46.9 °F - 43.0 °F 86% 29.96 in - Calm Calm - N/A   Unknown
10:52 PM 46.9 °F - 42.1 °F 83% 29.96 in - North 5.8 mph - N/A   Unknown
11:52 PM 46.9 °F - 42.1 °F 83% 29.96 in - North 5.8 mph - N/A   Unknown